Home > Weather > Lódz > Past weeks

Flag for Poland Past Weather in Lódz, Poland — Yesterday and Last 2 Weeks

Now
73 °F

Overcast.


Feels Like: 76 °F
Forecast: 61 / 76 °F
Wind: 1 mph from North

Location: Lodz

Current Time: Jul 28, 2016 at 10:33:32 PM

Latest Report: Jul 28, 2016 at 8:00 PM


Visibility: 13 mi

Pressure: 29.94 "Hg

Humidity: 66%

Dew Point: 61 °F

Location of LódzLocation

Past Weather in Lódz — Graph

°F

Lódz Temperature Yesterday

Maximum temperature yesterday: 80 °F (at 5:00 PM)
Minimum temperature yesterday: 63 °F (at 5:00 AM)
Average temperature yesterday: 70 °F

High & Low Weather Summary for the Past Weeks

 TemperatureHumidityPressure
High83 °F (Jul 24, 4:00 PM)98% (Jul 16, 6:00 AM)30.22 "Hg (Jul 16, 6:00 AM)
Low47 °F (Jul 21, 5:00 AM)37% (Jul 21, 5:00 PM)29.53 "Hg (Jul 14, 3:00 PM)
Average65 °F78%30.02 "Hg
* Reported Jul 13 8:00 PM — Jul 28 8:00 PM, Lódz, Weather by CustomWeather, © 2016

Note: Actual official high and low records may vary slightly from our data, if they occured in-between our weather recording intervals... More about our weather records

Advertising

Lódz Weather History for the Previous 24 Hours

Scroll right to see more
 ConditionsComfort  
Time TempWeatherWind HumidityBarometerVisibility
8:00 PM
Thu, Jul 28
73 °FOvercast.1 mph66%29.94 "Hg12 mi
5:00 PM77 °FOvercast.3 mph51%29.94 "Hg12 mi
3:00 PM77 °FOvercast.N/A57%29.95 "Hg12 mi
2:00 PM75 °FOvercast.N/A64%29.96 "Hg12 mi
1:00 PM75 °FOvercast.5 mph62%29.97 "Hg12 mi
12:00 PM75 °FOvercast.5 mph65%29.97 "Hg12 mi
11:00 AM72 °FOvercast.5 mph75%29.97 "Hg11 mi
10:00 AM69 °FLow clouds.3 mph86%29.97 "Hg6 mi
9:00 AM68 °FFog.3 mph92%29.97 "Hg3 mi
8:00 AM66 °FFog.3 mph96%29.96 "Hg2 mi
7:00 AM66 °FFog.5 mph96%29.95 "Hg2 mi
6:00 AM65 °FFog.2 mph97%29.94 "Hg2 mi
5:00 AM65 °FFog.1 mph97%29.93 "Hg2 mi
4:00 AM65 °FFog.1 mph97%29.93 "Hg2 mi
3:00 AM65 °FOvercast.2 mph97%29.92 "Hg2 mi
2:00 AM65 °FFog.1 mph97%29.93 "Hg2 mi
1:00 AM65 °FFog.1 mph95%29.94 "Hg5 mi
12:00 AM65 °FFog.1 mph94%29.95 "Hg4 mi
11:00 PM
Wed, Jul 27
67 °FPassing clouds.2 mph93%29.95 "Hg6 mi
10:00 PM68 °FPassing clouds.2 mph93%29.95 "Hg6 mi
Weather by CustomWeather, © 2016

See weather overviewHow to use our weather pages